Lake Tohopekaliga Weather Center

Moon Phase Calendar



Lake Tohopekaliga Water Level
Online Cameras

 


      

Current Conditions in Campbell
12/7/2021 2:18:51 PM

79°F
Feels Like 79
Clear
Humidity
64%
Pressure
30.09"
Wind
6.9 mph (NW)
Dew Point
66°F
UV Index
3/10 (Moderate)
Visibility
6 mi

Hourly Forecast

Date & Time Tue, Dec 7
2:00 PM
Tue, Dec 7
3:00 PM
Tue, Dec 7
4:00 PM
Tue, Dec 7
5:00 PM
Tue, Dec 7
6:00 PM
Tue, Dec 7
7:00 PM
Tue, Dec 7
8:00 PM
Tue, Dec 7
9:00 PM
Tue, Dec 7
10:00 PM
Tue, Dec 7
11:00 PM
Wed, Dec 8
12:00 AM
Wed, Dec 8
1:00 AM
Wed, Dec 8
2:00 AM
Wed, Dec 8
3:00 AM
Wed, Dec 8
4:00 AM
Wed, Dec 8
5:00 AM
Wed, Dec 8
6:00 AM
Wed, Dec 8
7:00 AM
Wed, Dec 8
8:00 AM
Wed, Dec 8
9:00 AM
Wed, Dec 8
10:00 AM
Wed, Dec 8
11:00 AM
Wed, Dec 8
12:00 PM
Wed, Dec 8
1:00 PM
Wed, Dec 8
2:00 PM
Wed, Dec 8
3:00 PM
Wed, Dec 8
4:00 PM
Wed, Dec 8
5:00 PM
Wed, Dec 8
6:00 PM
Wed, Dec 8
7:00 PM
Wed, Dec 8
8:00 PM
Wed, Dec 8
9:00 PM
Wed, Dec 8
10:00 PM
Wed, Dec 8
11:00 PM
Thu, Dec 9
12:00 AM
Thu, Dec 9
1:00 AM
Thu, Dec 9
2:00 AM
Thu, Dec 9
3:00 AM
Thu, Dec 9
4:00 AM
Thu, Dec 9
5:00 AM
Thu, Dec 9
6:00 AM
Thu, Dec 9
7:00 AM
Thu, Dec 9
8:00 AM
Thu, Dec 9
9:00 AM
Thu, Dec 9
10:00 AM
Thu, Dec 9
11:00 AM
Thu, Dec 9
12:00 PM
Thu, Dec 9
1:00 PM
Condition
Clear

Clouds

Clouds

Clouds

Clouds

Clouds

Clouds

Clouds

Clouds

Clouds

Clouds

Clouds

Clouds

Clouds

Clouds

Clouds

Clouds

Clouds

Clear

Clear

Clear

Clear

Clear

Clear

Clouds

Clear

Clear

Clear

Clouds

Clouds

Clear

Clouds

Clouds

Clouds

Clear

Clouds

Clouds

Clouds

Clouds

Clouds

Clouds

Clouds

Clouds

Clouds

Clouds

Clouds

Clouds

Clouds
Temperature 79°F79°F79°F77°F74°F71°F69°F68°F67°F66°F66°F65°F65°F64°F64°F63°F63°F63°F65°F70°F74°F77°F80°F81°F82°F82°F81°F77°F73°F71°F70°F69°F69°F68°F68°F67°F67°F67°F66°F66°F66°F66°F68°F71°F74°F77°F79°F81°F
Feels Like 79°F79°F79°F77°F74°F71°F69°F68°F67°F66°F66°F65°F65°F64°F64°F64°F63°F63°F65°F70°F74°F77°F80°F82°F83°F83°F82°F77°F73°F71°F70°F69°F69°F69°F68°F68°F68°F67°F67°F67°F67°F67°F68°F72°F75°F77°F79°F83°F
Cloudiness 1%21%37%55%73%93%100%100%100%100%100%100%100%72%48%36%29%24%0%0%0%0%0%0%14%10%8%7%12%13%3%15%13%12%10%20%79%59%43%34%29%30%35%43%49%60%61%59%
Visibility 6 mi6 mi6 mi6 mi6 mi6 mi6 mi6 mi6 mi6 mi6 mi6 mi6 mi6 mi6 mi6 mi6 mi6 mi6 mi6 mi6 mi6 mi6 mi6 mi6 mi6 mi6 mi6 mi6 mi6 mi6 mi6 mi6 mi6 mi6 mi6 mi6 mi6 mi6 mi6 mi6 mi6 mi6 mi6 mi6 mi6 mi6 mi6 mi
Precipitation 0%0%0%0%0%0%0%0%0%0%0%0%0%0%0%0%0%0%0%0%0%0%0%0%0%0%0%0%0%0%0%0%0%0%0%0%0%0%0%0%0%0%0%0%0%0%0%0%
Humidity 64%61%59%62%64%68%74%79%82%83%84%85%86%86%86%87%87%87%83%72%64%57%52%49%48%49%53%60%66%69%73%76%80%82%86%89%92%94%95%96%97%97%95%87%80%72%66%61%
Dew Point 66°F65°F64°F63°F61°F60°F60°F61°F61°F61°F61°F60°F60°F60°F59°F59°F59°F59°F60°F61°F61°F61°F61°F61°F61°F61°F62°F62°F61°F61°F61°F61°F62°F62°F63°F64°F64°F65°F65°F65°F65°F65°F66°F67°F67°F67°F67°F66°F
Pressure 30.09"30.09"30.06"30.06"30.06"30.06"30.09"30.09"30.09"30.09"30.06"30.06"30.06"30.06"30.06"30.03"30.06"30.06"30.09"30.09"30.09"30.09"30.06"30.03"30"30"30"30.03"30.03"30.06"30.06"30.09"30.09"30.09"30.06"30.09"30.09"30.09"30.06"30.06"30.09"30.12"30.12"30.15"30.18"30.15"30.15"30.12"
Wind Speed 5.1 mph4 mph3.5 mph1.7 mph1.4 mph2.3 mph3.1 mph3.8 mph4.3 mph5.3 mph5.3 mph5 mph5.1 mph4.3 mph3.9 mph4 mph5.4 mph5.6 mph4.7 mph6.2 mph7.6 mph8.6 mph9.6 mph11.4 mph11.6 mph12.1 mph10.9 mph10.2 mph7.9 mph6.7 mph6.5 mph5.8 mph5.6 mph5.8 mph5.7 mph5 mph4.5 mph4 mph3.1 mph2.7 mph2.8 mph2.7 mph2.9 mph3.2 mph3.5 mph4.2 mph4.7 mph4.6 mph
Wind
Direction
305°
NW
307°
NW
319°
NW

N
48°
NE
67°
ENE
80°
E
88°
E
107°
ESE
129°
SE
143°
SE
145°
SE
162°
SSE
168°
SSE
185°
S
189°
S
184°
S
188°
S
196°
SSW
199°
SSW
206°
SSW
217°
SW
230°
SW
238°
WSW
245°
WSW
243°
WSW
261°
W
264°
W
260°
W
252°
WSW
255°
WSW
268°
W
256°
WSW
259°
W
249°
WSW
272°
W
274°
W
285°
WNW
307°
NW
340°
NNW
359°
N
58°
ENE
72°
ENE
83°
E
115°
ESE
144°
SE
171°
S
201°
SSW

Daily Forecast

Date High Low Precip. Humidity
Today
Dec 7

Clouds
79 °F
63 °F
0%
60%
Wednesday
Dec 8

Clear
82 °F
63 °F
0%
52%
Thursday
Dec 9

Clouds
81 °F
66 °F
14%
61%
Friday
Dec 10

Clear
83 °F
67 °F
0%
56%
Saturday
Dec 11

Clouds
82 °F
67 °F
0%
52%
Sunday
Dec 12

Rain
70 °F
59 °F
28%
55%
Monday
Dec 13

Clear
75 °F
57 °F
0%
49%
Tuesday
Dec 14

Clouds
73 °F
68 °F
0%
57%
Wednesday
Dec 15

Rain
76 °F
64 °F
35%
53%
Thursday
Dec 16

Rain
78 °F
64 °F
31%
47%
Friday
Dec 17

Rain
78 °F
65 °F
75%
65%
Saturday
Dec 18

Rain
77 °F
69 °F
39%
72%
Sunday
Dec 19

Rain
80 °F
69 °F
20%
68%
Monday
Dec 20

Rain
81 °F
68 °F
96%
63%
Tuesday
Dec 21

Rain
83 °F
67 °F
39%
60%
Wednesday
Dec 22

Rain
82 °F
67 °F
93%
59%

Temperature 8-14 Day Outlook



Precipitation 8-14 Day Outlook




Quick Links
Lake Tohopekaliga News
Lake Tohopekaliga Photos
Lake Tohopekaliga Videos




About Us
Contact Us
Site Map
Search Site
Advertise With Us
   
Tohopekaliga.USLakes.info
THE LAKE TOHOPEKALIGA WEBSITE

Copyright 2021, Lakes Online
Privacy    |    Legal